Regional Weather Roundup
Issued by NWS

Home | Current Version | Previous Version | Graphics & Text | Print | Product List | Glossary On
Versions: 1 2 3 4 5 6 7 8 9 10 11 12 13 14 15 16 17 18 19 20 21 22 23 24 25 26 27 28 29 30 31 32 33 34 35 36 37 38 39 40 41 42 43 44 45 46 47 48 49 50
000
ASUS43 KFSD 031710
RWRSD

WEATHER ROUNDUP FOR SOUTH DAKOTA
NATIONAL WEATHER SERVICE SIOUX FALLS SD
1200 PM CDT THU SEP 03 2015

NOTE: "FAIR" INDICATES FEW OR NO CLOUDS BELOW 12,000 FEET WITH NO
SIGNIFICANT WEATHER AND/OR OBSTRUCTIONS TO VISIBILITY.


SDZ001>005-009-010-012>017-031800-
NORTHWEST AND NORTH CENTRAL SOUTH DAKOTA

CITY           SKY/WX    TMP DP  RH WIND       PRES   REMARKS
BUFFALO          N/A     83  46  27 W17       29.71S
MOBRIDGE       SUNNY     87  66  49 SE14      29.70S
$$

SDZ012>016-024>037-041>051-057-063-072>074-031800-
SOUTHWEST AND SOUTH CENTRAL SOUTH DAKOTA

CITY           SKY/WX    TMP DP  RH WIND       PRES   REMARKS
RAPID CTY ARPT MOSUNNY   88  60  38 E6        29.79F
PIERRE         SUNNY     90  66  45 SE14      29.73F
CUSTER         MOSUNNY   85  41  21 SW9       29.99F
ELLSWORTH AFB  MOSUNNY   90  56  31 S9        29.79S
PHILIP         MOSUNNY   90  60  36 SW6       29.75R
PINE RIDGE     SUNNY     88  50  27 SW5       29.85S
WINNER         FAIR      96  55  25 SE13      29.79S
$$

SDZ004>011-016>023-039-040-031800-
NORTHEAST SOUTH DAKOTA

CITY           SKY/WX    TMP DP  RH WIND       PRES   REMARKS
ABERDEEN       SUNNY     86  73  65 SE16      29.77S
WATERTOWN      SUNNY     85  71  63 S14       29.84S
BROOKINGS      SUNNY     82  72  69 SE13      29.86S
SISSETON         N/A     79  70  74 S13       29.82S
$$

SDZ017-020-022-023-036>040-048>070-031800-
SOUTHEAST SOUTH DAKOTA

CITY           SKY/WX    TMP DP  RH WIND       PRES   REMARKS
SIOUX FALLS    SUNNY     82  71  69 S9        29.84S
HURON            N/A    N/A N/A N/A MISG      29.79S
CHAMBERLAIN    SUNNY     85  72  65 SE9       29.79S
MITCHELL       SUNNY     84  72  67 S9        29.81R
YANKTON        SUNNY     81  70  69 SE9       29.80F
$$

ABBREVIATIONS USED IN REMARKS
   TC - TEMPERATURE IN CELSIUS
  WCI - WIND CHILL INDEX
   HX - HEAT INDEX
  VSB - VISIBILITY




USA.gov is the U.S. government's official web portal to all federal, state and local government web resources and services.